{"data":{"norad_id":68704,"epoch":"2026-05-25T04:00:03.998880Z","epoch_age_seconds":64077,"freshness":"FRESH","line1":"1 68704U 26081F   26145.16671295 -.01809902  00000+0 -48705-1 0  9992","line2":"2 68704  53.1597  39.2297 0001079  87.1105  24.4260 15.40545689  5806","mean_motion":15.40545689,"eccentricity":0.0001079,"inclination_deg":53.1597,"raan_deg":39.2297,"arg_perigee_deg":87.1105,"mean_anomaly_deg":24.426,"bstar":-0.048705,"rev_number":580,"period_min":93.473371824158,"perigee_km":443.76154665829,"apogee_km":445.23387122848,"semimajor_km":6822.6347089434,"source":"CELESTRAK","updated_at":"2026-05-25T13:38:21.998404Z"}}